| time (UTC) | temp F | wind direction | speed knots | gust knots | rain 1hr in | rain 24hr in | rain mn in | humidity % | barometer mb |
| 20260904023036 | 82 | 29 | 0.0 | 0.9 | 0.00 | 0.00 | 0.00 | 80 | 1012.6 |
| 20260904021548 | 81 | 6 | 0.0 | 0.9 | 0.00 | 0.00 | 0.00 | 79 | 1012.6 |
| 20260904020036 | 81 | 337 | 0.0 | 0.0 | 0.00 | 0.00 | 0.00 | 78 | 1012.5 |
| 20260904014539 | 81 | 335 | 0.0 | 0.0 | 0.00 | 0.00 | 0.00 | 77 | 1012.4 |
| 20260904013035 | 82 | 335 | 0.0 | 0.9 | 0.00 | 0.00 | 0.00 | 77 | 1012.2 |
| 20260904011547 | 83 | 44 | 0.0 | 0.0 | 0.00 | 0.00 | 0.00 | 77 | 1011.9 |
| 20260904010036 | 83 | 94 | 0.0 | 0.0 | 0.00 | 0.00 | 0.00 | 76 | 1011.4 |
| 20260904004533 | 85 | 94 | 0.0 | 0.0 | 0.00 | 0.00 | 0.00 | 73 | 1011.1 |
| 20260904003034 | 86 | 95 | 0.0 | 1.7 | 0.00 | 0.00 | 0.00 | 70 | 1010.8 |
| 20260904001532 | 87 | 146 | 0.0 | 3.5 | 0.00 | 0.00 | 0.00 | 67 | 1010.9 |
| 20260904000031 | 87 | 174 | 0.0 | 2.6 | 0.00 | 0.00 | 0.00 | 66 | 1010.9 |
| 20260903234528 | 88 | 132 | 0.0 | 0.9 | 0.00 | 0.00 | 0.00 | 65 | 1011.1 |
| 20260903233026 | 89 | 143 | 0.0 | 1.7 | 0.00 | 0.00 | 0.00 | 62 | 1011.2 |
| 20260903231525 | 90 | 130 | 0.0 | 2.6 | 0.00 | 0.00 | 0.00 | 62 | 1011.2 |
| 20260903230034 | 90 | 145 | 0.0 | 6.1 | 0.00 | 0.00 | 0.00 | 60 | 1011.4 |
| 20260903224532 | 91 | 155 | 2.6 | 6.1 | 0.00 | 0.00 | 0.00 | 58 | 1011.4 |
| 20260903223023 | 91 | 148 | 0.0 | 2.6 | 0.00 | 0.00 | 0.00 | 59 | 1011.3 |
| 20260903221520 | 92 | 158 | 0.0 | 2.6 | 0.00 | 0.00 | 0.00 | 57 | 1011.6 |
| 20260903220034 | 92 | 166 | 1.7 | 4.3 | 0.00 | 0.00 | 0.00 | 56 | 1011.6 |
| 20260903214522 | 92 | 160 | 1.7 | 4.3 | 0.00 | 0.00 | 0.00 | 54 | 1011.6 |
| 20260903213023 | 92 | 153 | 1.7 | 5.2 | 0.00 | 0.00 | 0.00 | 56 | 1011.6 |
| 20260903211515 | 92 | 147 | 0.0 | 4.3 | 0.00 | 0.00 | 0.00 | 58 | 1011.6 |
| 20260903210017 | 91 | 153 | 0.9 | 5.2 | 0.00 | 0.00 | 0.00 | 58 | 1011.8 |
| 20260903204514 | 91 | 166 | 0.9 | 3.5 | 0.00 | 0.00 | 0.00 | 58 | 1011.7 |
| 20260903203008 | 91 | 150 | 0.9 | 5.2 | 0.00 | 0.00 | 0.00 | 61 | 1011.9 |
| 20260903201514 | 90 | 78 | 1.7 | 7.0 | 0.00 | 0.00 | 0.00 | 60 | 1012.0 |
| 20260903200005 | 89 | 99 | 0.9 | 4.3 | 0.00 | 0.00 | 0.00 | 63 | 1012.2 |
| 20260903194503 | 89 | 98 | 1.7 | 4.3 | 0.00 | 0.00 | 0.00 | 61 | 1012.4 |
| 20260903193002 | 90 | 111 | 0.0 | 5.2 | 0.00 | 0.00 | 0.00 | 63 | 1012.5 |
| 20260903191602 | 90 | 118 | 0.9 | 2.6 | 0.00 | 0.00 | 0.00 | 61 | 1012.6 |
| 20260903190057 | 89 | 57 | 0.0 | 3.5 | 0.00 | 0.00 | 0.00 | 62 | 1012.7 |
| 20260903184553 | 88 | 104 | 0.0 | 1.7 | 0.00 | 0.00 | 0.00 | 66 | 1012.9 |
| 20260903183052 | 87 | 7 | 0.9 | 6.1 | 0.00 | 0.00 | 0.00 | 67 | 1013.2 |
| 20260903181551 | 87 | 93 | 0.0 | 1.7 | 0.00 | 0.00 | 0.00 | 67 | 1013.3 |
| 20260903180050 | 84 | 20 | 0.0 | 5.2 | 0.00 | 0.00 | 0.00 | 69 | 1013.6 |
| 20260903174549 | 83 | 4 | 1.7 | 6.1 | 0.00 | 0.00 | 0.00 | 72 | 1013.7 |
| 20260903173050 | 82 | 356 | 1.7 | 10.4 | 0.00 | 0.00 | 0.00 | 76 | 1013.8 |
| 20260903171555 | 83 | 351 | 6.1 | 9.6 | 0.00 | 0.00 | 0.00 | 71 | 1014.2 |
| 20260903170049 | 83 | 342 | 3.5 | 9.6 | 0.00 | 0.00 | 0.00 | 71 | 1014.2 |
| 20260903164546 | 83 | 283 | 1.7 | 8.7 | 0.00 | 0.00 | 0.00 | 70 | 1014.2 |
| 20260903163046 | 84 | 30 | 6.1 | 13.0 | 0.00 | 0.00 | 0.00 | 67 | 1014.1 |
| 20260903161546 | 84 | 1 | 3.5 | 7.8 | 0.00 | 0.00 | 0.00 | 70 | 1014.0 |
| 20260903160042 | 84 | 231 | 3.5 | 13.0 | 0.00 | 0.00 | 0.00 | 69 | 1013.8 |
| 20260903154540 | 87 | 328 | 0.0 | 3.5 | 0.00 | 0.00 | 0.00 | 68 | 1013.5 |
| 20260903153037 | 87 | 236 | 0.9 | 5.2 | 0.00 | 0.00 | 0.00 | 70 | 1012.8 |
| 20260903151535 | 85 | 188 | 1.7 | 6.1 | 0.00 | 0.00 | 0.00 | 70 | 1012.8 |
| 20260903150043 | 84 | 157 | 0.0 | 3.5 | 0.00 | 0.00 | 0.00 | 72 | 1012.8 |
| 20260903144532 | 84 | 160 | 2.6 | 6.1 | 0.00 | 0.00 | 0.00 | 71 | 1012.8 |
| 20260903143037 | 84 | 265 | 0.0 | 4.3 | 0.00 | 0.00 | 0.00 | 73 | 1012.8 |
| 20260903141533 | 83 | 156 | 0.9 | 4.3 | 0.00 | 0.00 | 0.00 | 75 | 1012.7 |
| 20260903140021 | 82 | 131 | 0.0 | 4.3 | 0.00 | 0.00 | 0.00 | 77 | 1012.7 |
| 20260903134535 | 81 | 146 | 0.9 | 3.5 | 0.00 | 0.00 | 0.00 | 77 | 1012.6 |
| 20260903133015 | 80 | 301 | 2.6 | 5.2 | 0.00 | 0.00 | 0.00 | 79 | 1012.7 |
| 20260903131511 | 79 | 134 | 0.9 | 6.1 | 0.00 | 0.00 | 0.00 | 82 | 1012.8 |
| 20260903130006 | 78 | 154 | 0.9 | 4.3 | 0.00 | 0.00 | 0.00 | 84 | 1012.8 |
| 20260903124505 | 77 | 150 | 0.9 | 2.6 | 0.00 | 0.00 | 0.00 | 86 | 1012.9 |
| 20260903123008 | 76 | 173 | 0.0 | 0.9 | 0.00 | 0.00 | 0.00 | 88 | 1012.9 |
| 20260903121503 | 75 | 236 | 0.0 | 0.9 | 0.00 | 0.00 | 0.00 | 89 | 1013.0 |
| 20260903120003 | 74 | 237 | 0.0 | 0.9 | 0.00 | 0.00 | 0.00 | 90 | 1013.0 |
| 20260903114501 | 75 | 234 | 0.0 | 0.0 | 0.00 | 0.00 | 0.00 | 89 | 1012.9 |
| 20260903113100 | 75 | 237 | 0.0 | 0.0 | 0.00 | 0.00 | 0.00 | 88 | 1012.8 |
| 20260903111600 | 75 | 236 | 0.0 | 2.6 | 0.00 | 0.00 | 0.00 | 88 | 1012.7 |
| 20260903110059 | 75 | 163 | 0.0 | 0.9 | 0.00 | 0.00 | 0.00 | 88 | 1012.7 |
| 20260903104605 | 75 | 156 | 0.0 | 0.9 | 0.00 | 0.00 | 0.00 | 88 | 1012.8 |
| 20260903103057 | 75 | 128 | 0.0 | 0.9 | 0.00 | 0.00 | 0.00 | 89 | 1012.7 |
| 20260903101557 | 75 | 180 | 0.0 | 2.6 | 0.00 | 0.00 | 0.00 | 90 | 1012.6 |
| 20260903100056 | 75 | 142 | 0.0 | 0.9 | 0.00 | 0.00 | 0.00 | 92 | 1012.7 |
| 20260903094606 | 74 | 114 | 0.0 | 0.0 | 0.00 | 0.00 | 0.00 | 93 | 1012.7 |
| 20260903093058 | 74 | 113 | 0.0 | 0.9 | 0.00 | 0.00 | 0.00 | 93 | 1012.5 |
| 20260903091551 | 74 | 112 | 0.0 | 0.0 | 0.00 | 0.00 | 0.00 | 93 | 1012.5 |
| 20260903090050 | 75 | 113 | 0.0 | 0.0 | 0.00 | 0.00 | 0.00 | 92 | 1012.5 |
| 20260903084549 | 76 | 113 | 0.0 | 0.9 | 0.00 | 0.00 | 0.00 | 91 | 1012.4 |
| 20260903083049 | 76 | 113 | 0.0 | 0.9 | 0.00 | 0.00 | 0.00 | 92 | 1012.4 |
| 20260903081553 | 75 | 113 | 0.0 | 0.9 | 0.00 | 0.00 | 0.00 | 94 | 1012.4 |
| 20260903080047 | 75 | 129 | 0.0 | 0.0 | 0.00 | 0.00 | 0.00 | 94 | 1012.4 |
| 20260903074547 | 75 | 128 | 0.0 | 0.0 | 0.00 | 0.00 | 0.00 | 93 | 1012.4 |
| 20260903073058 | 75 | 127 | 0.0 | 0.0 | 0.00 | 0.00 | 0.00 | 93 | 1012.4 |
| 20260903071547 | 75 | 127 | 0.0 | 0.0 | 0.00 | 0.00 | 0.00 | 93 | 1012.5 |
| 20260903070043 | 75 | 127 | 0.0 | 0.0 | 0.00 | 0.00 | 0.00 | 93 | 1012.5 |
| 20260903064541 | 76 | 124 | 0.0 | 0.0 | 0.00 | 0.00 | 0.00 | 92 | 1012.5 |
| 20260903063039 | 76 | 127 | 0.0 | 0.0 | 0.00 | 0.00 | 0.00 | 90 | 1012.6 |
| 20260903061537 | 77 | 127 | 0.0 | 0.0 | 0.00 | 0.00 | 0.00 | 90 | 1012.5 |
| 20260903060038 | 78 | 127 | 0.0 | 0.0 | 0.00 | 0.00 | 0.00 | 89 | 1012.7 |
| 20260903054534 | 77 | 124 | 0.0 | 0.9 | 0.00 | 0.00 | 0.00 | 90 | 1012.6 |
| 20260903053036 | 77 | 127 | 0.0 | 0.0 | 0.00 | 0.00 | 0.00 | 91 | 1012.5 |
| 20260903051533 | 77 | 127 | 0.0 | 0.0 | 0.00 | 0.00 | 0.00 | 90 | 1012.4 |
| 20260903050028 | 77 | 127 | 0.0 | 0.0 | 0.00 | 0.00 | 0.00 | 89 | 1012.4 |
| 20260903044528 | 78 | 126 | 0.0 | 0.0 | 0.00 | 0.00 | 0.00 | 88 | 1012.3 |
| 20260903043027 | 79 | 126 | 0.0 | 0.9 | 0.00 | 0.00 | 0.00 | 88 | 1012.3 |
| 20260903041530 | 79 | 126 | 0.0 | 0.9 | 0.00 | 0.00 | 0.00 | 88 | 1012.4 |
| 20260903040026 | 78 | 126 | 0.0 | 0.0 | 0.00 | 0.00 | 0.00 | 89 | 1012.3 |
| 20260903034525 | 78 | 127 | 0.0 | 0.0 | 0.00 | 0.00 | 0.00 | 88 | 1012.4 |
| 20260903033025 | 79 | 126 | 0.0 | 0.0 | 0.00 | 0.00 | 0.00 | 87 | 1012.3 |
| 20260903031532 | 79 | 127 | 0.0 | 0.0 | 0.00 | 0.00 | 0.00 | 86 | 1012.3 |
| 20260903030024 | 80 | 127 | 0.0 | 0.0 | 0.00 | 0.00 | 0.00 | 85 | 1012.1 |
| 20260903024523 | 81 | 126 | 0.0 | 0.0 | 0.00 | 0.00 | 0.00 | 84 | 1012.1 |